SL-14 R/B, 19791

Orbit data source: Space-Track

SL-14 R/B, 19791 is space debris in LEO originally from a launch on Fri, 10 Feb 1989 UTC launched from the Plesetsk Missile And Space Complex (PKMTR). Debris objects in space refer to the collection of defunct objects orbiting the Earth. Examples of debris include non-operational satellites, rocket bodies, and fragments generated from explosions, collisions, or faulty payload assembly.

Loading next visibility...
Identifier
19791, 1989-009G
Orbit
LEO
Country
Flag of CISCIS
Related business
Manufacturer
Yuzhnoe
Mission
Spacecraft
Bus & Motor
S5M, Unknown motor
Mass
1,600 kg wet, 1,600 kg dry
Launch date (UTC)
1989-02-10 (37 years ago)
Launch vehicle
Unknown
Launch site
Plesetsk Missile And Space Complex (PKMTR)
Object type
Payload
Rocket body
Debris
Shape & HBR
Cyl, 1.4 m
Radar Cross Section
7.351 m², Large (>1 m²)

Expand to show TLE details & history
Last TLE update: 13 hours ago

TLE from 13 hours ago
0 SL-14 R/B
1 19791U 89009G   25258.85289693  .00000007  00000-0 -19701-4 0  9995
2 19791  82.6122 303.9926 0034515 192.5369 341.3087 12.54878940676143
Epoch: 2025-09-15T20:28Z
TLE epoch observation values (Epoch: 2025-09-15T20:28:10.294Z)
Latitude
6.15653°
Longitude
-178.89931°
Altitude
1,420.718 km
Speed
7.163 km/s
True Right ascension
08h 12m 46s
True Declination
6° 07' 23"
Sunlit
Object was in daylight at epoch
Visualization orbit readout
Latitude
Unknown
Longitude
Unknown
Altitude
Unknown
Speed
Unknown
Apparent Right ascension
Unknown
Apparent Declination
Unknown
Sunlit
N/A
Visualization observer readout
Local Sidereal Time
01:57:02
Azimuth
Unknown
Elevation
Unknown
Doppler factor
Unknown
Orbital elements
Apogee altitude
1,468.473 km
Perigee altitude
1,414.494 km
Semi-major axis
7,819.621 km
Eccentricity
0.00345
Inclination
82.6122°
RAAN
303.9926°
Arg. of periapsis
192.5369°
True anomaly
341.18143°
Mean anomaly
341.3087°
Eccentric anomaly
341.24512°
Mean motion
3.13881 °/min
Orbital period
114.69 mins
BSTAR
-0.000019701
Loading maneuver chart data...
Computing Atmospheric mass density...
Loading historical data...
Loading historical data...
Loading historical data...
Loading historical data...
Loading historical data...
Loading historical data...
Loading historical data...

Documentation

Showing up to 5 results
|